FALCON 9 DEB (55624 NORAD) Tracking and Keplerian Element Data

This shows tracking and keplerian element data for the satellite.

Feedback or suggestion? Click here.




ElementValue
Catalog55624
NameFALCON 9 DEB
Epoch Orbit297
Epoch Day61.85480377
Epoch Year2023
RAAN241.3746
Inclination43.0077
Eccentricity0.0017522
Argument of Perigee73.5164
Mean Anonmoly286.7637
Mean Motion15.9678565
Decay Rate0.00497218
L11 55624U 23020BH 23061.85480377 .00497218 10977-3 11051-2 0 9991
L22 55624 43.0077 241.3746 0017522 73.5164 286.7637 15.96785650 2974



Live tracking and technical data element details for FALCON 9 DEB (NORAD 55624). FALCON 9 DEB can be tracked NOW for your location showing map with azimuth and elevation plus other details from your city location.







IsCatalogInMostPopularTable: catalog: 55624, numindb: 4
Update: records affected: 1



GetName: 55624 FALCON 9 DEB

Hit Count: updated at: Tue, 28 Mar 2023 01:48:53 GMT